Ashland, WI

2:35 AM CDT on June 26, 2017 (GMT -0500)
Kennedy Memorial

Weather History for KASX - November, 2011

Change the Weather History Date:

Tuesday, November 1, 2011

  Actual Average Record
Temperature  
Mean Temperature 48 °F -  
Max Temperature 54 °F 49 °F 71 °F (1990)
Min Temperature 42 °F 30 °F 11 °F (1951)
Degree Days  
Heating Degree Days 17    
Moisture  
Dew Point 37 °F    
Average Humidity 70    
Maximum Humidity 83    
Minimum Humidity 57    
Precipitation  
Precipitation 0.02 in - - ()
Sea Level Pressure  
Sea Level Pressure 29.94 in    
Wind  
Wind Speed 7 mph (SW)    
Max Wind Speed 12 mph    
Max Gust Speed -    
Visibility 10 miles    
Events      
Averages and records for this station are not official NWS values.
T = Trace of Precipitation, MM = Missing Value Source: NWS Daily Summary

Daily Weather History Graph

Daily Weather History Graph

Search for Another Location

Airport or City:

Trip Planner

Search our weather history database for the weather conditions in past years. The results will help you decide how hot, cold, wet, or windy it might be!

Date:

Astronomy

Nov. 01, 2011 Rise Set
Actual Time 7:45 AM CDT 5:48 PM CDT
Civil Twilight 7:13 AM CDT 6:20 PM CDT
Nautical Twilight 6:37 AM CDT 6:55 PM CDT
Astronomical Twilight 6:02 AM CDT 7:30 PM CDT
Moon 1:35 PM CDT (11/1) 11:28 PM CDT (11/1)
Length of Visible Light 11h 06m
Length of Day
10h 03m
Waxing Crescent, 40% of the Moon is Illuminated
Nov 1
Waxing Crescent
Nov 2
First Quarter
Nov 10
Full
Nov 18
Last Quarter
Nov 25
New

Hourly Weather History & Observations

Time (CDT) Temp. Windchill Dew Point Humidity Pressure Visibility Wind Dir Wind Speed Gust Speed Precip Events Conditions
12:53 AM 42.1 °F 40.2 °F 36.0 °F 79% 29.97 in 10.0 mi SSW 3.5 mph - N/A   Mostly Cloudy
1:53 AM 43.0 °F 39.5 °F 35.1 °F 74% 29.95 in 10.0 mi South 5.8 mph - N/A   Scattered Clouds
2:53 AM 43.0 °F 38.2 °F 35.1 °F 74% 29.93 in 10.0 mi South 8.1 mph - N/A   Overcast
3:53 AM 44.1 °F 39.0 °F 34.0 °F 68% 29.92 in 10.0 mi South 9.2 mph - N/A   Overcast
4:53 AM 44.1 °F 40.1 °F 35.1 °F 71% 29.89 in 10.0 mi South 6.9 mph - N/A   Mostly Cloudy
5:53 AM 44.1 °F 38.6 °F 34.0 °F 68% 29.90 in 10.0 mi SSW 10.4 mph - N/A   Partly Cloudy
6:53 AM 45.0 °F 39.3 °F 34.0 °F 65% 29.89 in 10.0 mi SSW 11.5 mph - N/A   Overcast
7:53 AM 44.1 °F 39.0 °F 34.0 °F 68% 29.89 in 10.0 mi SSW 9.2 mph - N/A   Clear
8:53 AM 45.0 °F 40.6 °F 35.1 °F 68% 29.91 in 10.0 mi SSW 8.1 mph - N/A   Overcast
9:53 AM 46.9 °F - 35.1 °F 63% 29.91 in 10.0 mi SW 9.2 mph - N/A   Scattered Clouds
10:53 AM 48.0 °F - 35.1 °F 61% 29.92 in 10.0 mi SSW 6.9 mph - N/A   Scattered Clouds
11:53 AM 50.0 °F - 36.0 °F 59% 29.93 in 10.0 mi SW 9.2 mph - N/A   Mostly Cloudy
12:53 PM 48.0 °F - 43.0 °F 83% 29.90 in 10.0 mi SSW 5.8 mph - 0.02 in   Overcast
1:53 PM 50.0 °F - 41.0 °F 71% 29.90 in 10.0 mi WSW 5.8 mph - N/A   Overcast
2:53 PM 53.1 °F - 39.9 °F 61% 29.91 in 10.0 mi WSW 10.4 mph - N/A   Mostly Cloudy
3:53 PM 54.0 °F - 39.0 °F 57% 29.92 in 10.0 mi SSW 6.9 mph - N/A   Overcast
4:53 PM 52.0 °F - 39.9 °F 63% 29.94 in 10.0 mi SW 3.5 mph - N/A   Scattered Clouds
5:53 PM 48.0 °F - 39.9 °F 74% 29.96 in 10.0 mi Calm Calm - N/A   Partly Cloudy
6:53 PM 46.9 °F - 39.9 °F 77% 29.99 in 10.0 mi West 4.6 mph - N/A   Mostly Cloudy
7:53 PM 46.9 °F - 39.0 °F 74% 30.00 in 10.0 mi WNW 5.8 mph - N/A   Overcast
8:53 PM 46.9 °F - 39.0 °F 74% 30.02 in 10.0 mi West 4.6 mph - N/A   Overcast
9:53 PM 45.0 °F 42.6 °F 39.0 °F 80% 30.04 in 10.0 mi West 4.6 mph - N/A   Mostly Cloudy
10:53 PM 44.1 °F 42.5 °F 39.0 °F 82% 30.04 in 10.0 mi West 3.5 mph - N/A   Clear